Theta_e
314 317 321 320 319 320 323 325 323 322 321 317 316 319 319 321 321 320 320 319 321 321 320 318 319 321 323 322 322 322 322 324 326 324 328 333 335 337 338 338 339 339 338 338 337 334 334 334 333 332 330 333 335 335 335 335 336 335 335 334 331 328 329 329 328 328 328 328 326 322 322 324 321 319 320 320 319 316 315 312 311 307 309 311 311 320 324 326 327 326 326 323 321 321 313 306 308
315 319 320 320 320 322 326 324 322 319 317 315 316 320 319 320 321 320 320 320 323 322 320 319 319 321 323 321 321 321 324 327 326 330 329 329 335 336 334 336 337 338 338 338 337 335 334 333 332 332 330 332 334 335 336 335 336 335 334 334 330 327 326 326 327 327 327 326 324 322 322 322 320 321 323 322 319 317 314 313 311 307 315 321 320 323 325 327 328 327 328 325 323 318 308 306 307
315 319 321 321 322 323 325 323 320 316 315 315 316 320 320 320 320 320 321 322 322 321 320 320 319 321 321 321 322 321 326 328 327 331 327 327 336 335 333 336 336 339 339 338 338 336 336 333 331 331 329 330 333 334 335 336 335 334 333 333 330 326 325 326 326 327 326 324 324 322 321 321 321 324 324 322 320 317 314 312 310 307 317 324 322 323 324 327 327 327 327 324 319 311 306 307 307
316 320 321 323 326 324 324 323 320 316 314 314 316 319 320 320 320 321 322 321 320 320 321 320 321 321 321 323 323 320 325 329 330 330 326 330 337 334 333 335 335 339 339 338 338 337 337 334 331 331 330 329 331 333 335 335 334 333 332 331 329 325 324 325 326 327 326 324 324 322 321 322 323 325 324 322 320 318 314 312 310 307 316 323 324 326 326 326 325 323 322 316 313 309 306 307 307
317 321 321 324 328 324 323 322 320 318 315 315 317 319 319 320 319 321 322 320 319 319 320 320 323 321 320 322 322 322 326 327 327 329 331 334 337 333 331 334 335 338 338 338 339 337 336 334 331 330 330 329 330 333 334 334 334 333 332 331 327 324 322 324 326 326 325 325 325 323 322 324 325 326 325 322 320 319 314 311 310 306 313 321 324 326 327 327 326 324 321 313 310 309 307 307 307
319 322 321 323 326 323 323 320 318 318 318 319 319 318 319 319 320 322 321 320 319 319 319 320 322 321 321 323 322 324 326 327 326 329 333 333 333 331 330 333 335 338 338 338 339 338 337 333 331 330 330 329 330 331 333 333 333 332 331 329 325 322 321 322 325 326 325 325 325 324 324 326 326 326 326 323 321 321 317 312 310 306 308 316 321 323 324 324 322 320 317 310 307 307 306 307 307
321 323 322 322 322 323 323 319 318 318 319 320 319 319 318 319 320 320 320 320 319 318 318 319 320 320 323 322 321 323 321 326 328 327 326 325 326 329 330 333 336 338 338 338 338 338 338 333 331 330 329 330 330 330 332 333 333 332 330 326 321 320 320 322 324 326 326 325 325 325 325 326 326 326 326 324 321 322 321 315 310 307 305 309 314 317 318 316 312 310 308 306 306 306 306 306 306
321 324 324 323 323 323 322 319 319 320 319 319 320 320 319 320 320 320 320 319 319 319 318 318 319 320 320 320 324 323 317 320 324 321 320 320 323 326 329 333 336 338 338 339 338 338 337 334 333 332 330 330 330 330 331 332 332 332 329 323 319 318 319 322 324 325 325 325 325 325 325 326 327 325 326 324 322 322 323 318 312 308 306 305 307 309 310 308 306 306 306 306 306 306 306 306 306
320 323 323 323 324 321 320 319 319 320 319 318 319 319 319 319 319 320 319 319 319 319 319 319 319 319 318 319 324 322 317 317 317 317 319 320 322 325 329 332 336 337 338 338 337 337 336 335 335 333 332 331 331 331 330 330 331 330 327 322 320 319 319 322 323 324 324 325 325 325 325 326 326 325 325 324 322 321 322 321 316 310 307 305 304 304 304 304 304 305 305 305 305 305 305 305 305
320 322 322 323 322 319 317 318 319 320 319 319 319 319 319 319 319 320 319 319 319 318 320 319 319 318 318 320 323 322 320 317 316 316 318 319 320 324 329 333 337 338 338 338 337 338 337 336 336 335 334 334 333 333 332 330 330 329 326 324 322 321 320 321 322 323 324 324 324 324 325 326 326 325 324 323 321 321 321 321 319 314 309 307 306 305 304 305 305 305 306 307 308 308 308 308 307
321 321 323 322 318 316 316 317 319 320 319 319 319 318 319 319 319 319 319 319 318 319 319 318 318 319 318 319 322 322 318 315 316 316 316 317 316 321 329 334 336 338 338 338 337 337 338 337 336 336 335 335 334 334 334 331 331 330 328 327 325 323 322 322 323 323 324 324 323 324 325 326 325 324 324 323 321 321 321 321 320 317 313 311 310 309 310 310 311 312 313 314 315 316 316 315 315
323 321 321 320 318 318 318 318 319 320 319 318 318 318 318 319 318 318 318 318 318 318 319 318 319 319 318 320 322 319 315 315 315 315 316 316 315 317 327 334 335 337 339 337 337 337 337 338 337 337 336 336 335 335 334 333 331 331 330 330 329 327 324 323 324 323 324 324 324 325 327 327 326 325 325 324 322 321 322 322 321 318 316 315 315 315 316 316 317 318 319 319 319 319 319 318 318
323 323 320 319 321 321 319 319 319 320 319 319 319 318 318 318 318 318 318 318 318 317 318 319 318 318 318 320 321 318 315 315 314 314 315 315 316 315 320 331 334 335 338 337 336 337 337 338 339 338 337 337 336 336 335 334 333 331 331 331 331 330 328 325 324 324 325 325 325 326 327 327 326 326 326 325 323 323 323 322 322 320 318 318 318 318 319 319 320 320 320 320 320 319 319 319 319
324 324 322 320 321 321 319 319 319 318 318 319 318 317 318 318 318 318 317 317 317 318 319 318 318 317 318 319 319 319 318 315 314 314 315 314 316 316 316 325 332 333 335 337 336 335 337 337 339 338 338 338 337 336 335 335 334 333 332 331 331 331 331 328 326 326 325 325 325 325 325 325 326 326 326 326 325 325 324 323 323 322 320 319 319 320 320 320 321 321 321 320 320 320 319 319 319
322 324 322 321 321 319 319 320 320 317 318 319 317 317 318 317 317 317 317 317 317 317 317 317 317 317 317 318 319 321 318 314 314 314 315 315 315 317 317 321 329 331 332 335 335 334 336 337 339 339 338 338 337 337 336 335 335 335 333 332 332 332 333 331 329 328 327 326 325 325 324 324 325 325 326 326 325 325 326 325 324 323 322 321 320 320 320 321 321 321 321 321 321 320 320 320 319
320 323 321 320 319 318 318 320 320 318 319 319 316 317 317 316 316 316 317 316 317 316 316 316 316 316 317 318 319 319 317 314 314 314 314 315 315 317 318 319 324 330 331 333 334 334 334 335 337 338 338 338 338 337 336 335 335 335 335 333 332 333 333 333 331 330 329 328 326 325 324 324 325 325 325 326 325 326 327 326 325 324 324 323 321 320 321 321 321 321 321 321 321 321 320 320 319
319 322 321 318 318 319 319 320 319 318 319 318 316 317 317 317 315 315 316 315 316 316 316 316 316 315 316 316 316 316 316 315 315 315 314 315 315 316 318 319 321 326 328 330 333 333 333 333 334 335 336 336 337 337 336 336 336 336 335 334 334 333 333 333 333 331 330 330 328 327 325 326 327 326 326 326 325 326 326 327 326 325 325 324 323 322 321 321 321 321 321 321 321 321 320 320 320
319 321 319 318 319 320 320 319 319 319 320 318 316 317 317 317 316 315 315 315 316 317 316 316 316 315 315 315 315 315 315 315 315 315 314 314 314 316 316 317 319 321 322 327 331 332 332 333 333 333 332 333 336 338 337 336 336 336 336 335 334 334 333 334 333 332 331 330 330 328 328 329 329 328 328 328 326 326 327 327 327 326 325 325 324 323 322 321 321 321 321 322 321 321 321 320 320
320 321 319 319 321 320 320 320 319 320 319 319 317 317 317 317 317 315 315 316 316 316 317 316 316 316 316 315 315 315 315 315 315 315 315 314 314 314 315 315 317 319 319 323 327 329 331 333 333 333 332 333 335 337 337 336 336 336 335 335 335 334 334 334 334 333 332 331 331 330 330 330 330 330 330 328 326 326 327 327 327 326 326 325 324 324 323 322 322 322 322 322 322 321 321 320 320
320 320 319 320 321 320 319 319 319 318 318 319 318 316 318 318 317 317 316 317 317 317 317 317 317 317 317 316 315 315 315 315 315 315 315 314 314 314 314 315 314 316 317 319 320 321 326 331 331 332 333 332 333 335 337 336 335 334 334 335 335 335 335 334 334 333 333 333 331 331 331 330 329 330 330 329 327 326 326 327 328 327 326 326 325 324 324 323 322 322 322 322 322 322 321 320 320
319 317 318 319 319 319 317 318 317 316 317 318 318 316 317 317 316 317 316 316 317 318 317 317 318 317 318 317 316 316 315 315 315 315 315 314 315 314 315 318 315 316 317 317 316 315 320 326 328 330 331 331 333 336 337 337 335 334 334 334 334 335 335 335 334 333 333 333 332 332 332 331 330 330 329 328 327 326 325 326 327 327 327 327 326 325 324 324 323 324 323 323 322 322 322 321 320
318 316 317 317 317 318 317 316 315 315 317 317 318 316 316 317 316 317 317 317 317 318 318 317 318 317 318 318 317 316 315 315 315 315 315 315 315 314 316 319 318 318 317 315 314 313 316 322 326 328 329 331 332 334 335 335 335 335 335 334 333 334 335 335 334 334 333 332 333 332 332 331 330 329 329 328 328 327 326 326 326 327 328 327 326 325 324 324 325 325 325 324 323 322 322 321 321
317 317 317 317 317 318 316 315 314 315 317 317 318 317 316 316 316 317 317 317 318 318 318 317 317 317 317 317 316 316 315 315 315 315 315 315 315 314 315 318 318 317 315 314 314 314 314 317 320 322 324 328 331 331 332 333 334 336 335 334 333 333 334 334 335 334 333 333 333 333 332 332 330 330 329 328 328 328 327 327 327 327 328 328 327 326 325 325 326 326 327 326 324 323 322 321 320
318 318 317 316 316 317 315 314 314 314 316 317 316 316 317 317 317 317 317 317 317 317 317 317 317 316 316 316 316 316 316 315 315 315 315 315 315 314 315 317 318 316 314 314 313 314 314 314 315 315 317 320 325 327 327 328 330 333 335 334 333 333 333 333 334 333 334 333 333 332 332 332 331 330 330 329 329 328 328 328 328 327 328 328 327 326 326 326 326 325 325 326 325 324 323 322 320
318 317 317 316 316 316 314 314 314 314 315 315 315 316 317 317 316 316 316 317 317 317 317 316 316 316 316 315 316 316 316 316 315 315 315 315 315 314 314 315 316 315 314 314 313 314 314 314 313 314 315 316 320 322 323 325 327 328 328 329 329 330 333 333 333 334 333 333 332 332 332 332 332 331 330 330 330 329 329 329 329 328 328 328 328 327 327 327 326 325 323 324 325 324 323 322 319
318 318 317 317 316 316 314 314 314 314 315 314 315 317 317 315 315 315 317 317 317 317 316 316 316 316 316 315 315 315 316 316 316 316 315 315 315 314 314 314 315 314 314 313 313 313 313 313 313 313 314 315 317 319 321 324 327 326 325 326 324 325 329 330 330 331 331 331 332 332 332 332 332 331 330 330 329 329 329 329 330 329 329 328 328 328 327 326 326 324 323 323 325 324 324 322 319
317 318 318 317 317 316 315 316 315 315 315 315 316 317 318 315 315 316 318 318 317 317 316 316 316 316 316 316 316 316 316 316 316 316 315 315 315 315 315 315 315 314 314 313 313 313 313 313 313 313 313 314 314 316 318 321 324 325 326 327 322 322 327 328 327 326 328 332 332 332 331 331 332 331 330 330 330 329 329 329 329 329 329 329 328 328 327 326 325 324 322 323 325 325 324 322 319
317 318 318 317 317 317 316 317 316 316 316 315 316 318 318 316 315 317 319 318 318 317 317 317 317 317 317 316 317 316 316 316 316 315 315 316 315 315 315 315 315 314 314 313 313 313 313 313 313 313 313 313 313 313 315 316 320 324 325 325 320 324 332 332 331 328 328 333 333 332 331 330 331 331 331 331 330 330 329 329 329 328 329 329 328 327 327 326 325 324 322 323 324 324 324 322 319
317 317 318 317 318 317 317 318 317 317 317 315 316 317 317 317 317 318 319 318 318 317 317 317 317 317 317 317 317 317 317 316 316 316 316 316 315 315 315 315 315 315 315 314 314 314 313 314 312 313 313 313 313 313 314 314 316 320 322 324 320 324 335 336 334 333 331 333 333 332 332 330 328 328 330 331 330 330 330 330 329 328 328 329 328 327 327 327 326 324 322 323 323 323 323 322 319
317 318 318 318 317 317 318 318 317 317 317 315 316 316 317 319 319 319 319 318 317 317 317 318 318 318 317 317 317 317 317 317 317 317 316 316 316 316 315 315 315 315 315 314 314 314 314 313 312 313 313 313 313 313 313 313 314 315 318 322 319 321 332 335 334 335 333 330 331 332 331 328 324 324 329 330 328 328 328 330 330 329 329 329 328 327 327 327 326 324 322 323 323 322 323 321 319
318 317 317 318 317 317 318 318 317 317 316 315 316 315 317 319 321 320 319 318 318 318 318 319 319 319 318 318 317 317 317 317 318 317 317 317 316 316 316 315 315 315 315 315 314 314 314 313 313 313 313 313 313 313 313 312 313 313 315 318 316 316 324 327 328 332 334 330 329 330 327 323 321 324 328 328 326 324 325 328 329 330 330 329 329 327 327 327 325 324 323 323 323 322 322 320 318
318 316 316 318 317 317 318 317 317 317 315 316 316 316 317 319 320 318 318 318 317 317 318 319 319 319 319 318 318 317 317 317 317 318 317 317 317 317 317 316 315 315 315 315 315 314 313 313 313 313 313 313 313 313 313 312 312 312 313 314 313 313 316 319 321 325 329 327 326 326 323 320 321 325 329 329 326 324 324 326 327 329 330 329 329 328 327 327 326 324 323 323 323 322 322 319 318
318 316 316 319 316 316 317 316 316 317 316 316 316 316 318 319 319 318 318 317 316 317 318 319 319 319 319 319 318 318 318 317 318 318 317 317 317 317 317 316 316 315 315 315 315 314 314 313 313 313 313 313 313 313 313 312 313 313 313 312 313 313 312 315 318 321 322 321 324 325 323 323 324 327 330 329 327 325 326 326 327 329 329 329 328 327 327 326 325 324 323 323 322 322 321 319 317
317 317 316 318 317 315 316 316 316 316 316 317 316 316 317 318 319 319 318 317 317 317 318 319 319 319 319 319 319 318 318 318 318 318 318 318 317 317 317 316 316 316 315 315 315 315 314 314 314 313 313 313 313 313 313 312 313 313 313 313 313 313 312 312 315 319 320 321 326 327 325 327 328 328 326 324 323 325 326 327 327 328 329 329 328 327 327 326 325 324 323 323 321 320 319 318 317
317 317 315 315 317 315 315 316 316 315 315 316 317 317 317 318 318 319 319 318 318 318 319 318 319 319 319 319 319 319 318 318 319 318 318 318 318 318 317 317 317 316 316 316 315 315 315 314 314 314 313 313 313 313 313 312 312 313 313 313 313 312 312 312 312 317 322 326 329 327 326 329 328 326 324 321 320 322 326 327 327 328 328 328 327 327 327 326 325 324 323 322 320 319 318 318 316
316 318 316 315 316 315 316 316 315 315 316 316 317 316 317 318 318 319 319 319 319 319 319 319 319 318 318 318 318 319 318 317 318 318 319 319 319 319 318 318 317 317 316 315 315 315 315 314 314 314 313 313 313 313 312 312 312 312 313 313 313 313 312 312 314 319 325 328 328 327 328 329 327 324 324 321 320 322 326 327 327 328 327 327 327 326 326 326 324 323 322 322 321 319 318 318 315
315 316 316 316 316 315 317 317 314 315 315 316 317 317 317 318 317 318 319 319 319 319 319 319 319 318 318 318 317 317 317 317 317 317 318 318 318 319 319 318 318 317 317 316 316 315 315 315 315 314 314 313 313 313 313 312 312 312 313 313 313 313 312 315 319 321 323 324 327 329 330 329 326 325 324 322 321 322 324 326 326 326 326 326 326 325 324 324 323 322 322 321 320 319 318 316 311
315 315 316 316 316 316 317 317 314 314 315 315 316 317 317 317 317 318 318 318 318 319 319 319 319 319 319 318 318 317 317 317 317 317 317 317 318 318 318 318 318 318 317 317 316 316 315 315 315 315 314 314 313 313 313 312 312 312 313 313 313 313 313 317 320 319 318 319 322 326 328 327 326 325 324 324 324 323 323 325 325 324 324 325 324 324 322 321 322 322 322 320 319 318 316 312 308
316 316 317 316 317 317 316 316 314 314 314 315 316 316 316 317 317 317 318 318 318 318 319 319 319 319 319 319 319 318 318 318 318 317 317 317 317 317 318 318 318 318 317 317 316 316 315 315 315 315 314 314 313 313 313 312 312 311 312 313 313 313 314 317 318 317 319 320 320 322 324 325 325 324 325 324 324 324 323 325 324 324 324 323 323 323 321 320 322 323 321 320 319 317 314 310 306
317 317 316 316 318 317 314 314 315 314 315 315 316 316 316 317 317 318 319 319 319 319 319 319 319 320 319 320 319 319 319 319 318 318 318 317 317 317 317 317 318 318 317 317 316 316 316 316 315 315 315 314 314 313 313 312 311 311 312 312 313 314 316 318 317 318 320 322 323 324 325 325 324 324 325 324 324 324 324 324 324 322 322 321 321 322 321 319 321 322 320 320 319 315 311 308 307
317 319 317 316 318 317 315 316 316 315 315 315 316 316 316 318 320 319 320 320 320 320 320 320 319 319 318 319 318 318 318 318 318 318 319 318 317 317 317 316 317 317 316 316 316 316 316 316 316 315 315 314 314 313 312 312 311 311 312 312 313 314 317 319 318 319 319 321 326 327 326 325 324 325 325 324 324 323 323 323 323 321 320 319 319 321 320 318 320 321 320 321 318 312 307 306 307
316 319 319 316 315 317 317 318 317 315 315 316 317 314 314 317 320 319 319 320 319 320 321 320 320 319 318 318 317 317 316 317 317 317 318 318 317 317 317 317 317 316 316 316 316 316 315 315 315 314 314 314 314 313 312 312 311 311 311 312 313 314 316 317 318 318 318 320 325 326 325 325 325 325 324 323 323 322 322 322 322 321 320 319 319 321 320 319 321 321 321 320 315 308 306 305 305
314 318 319 318 317 318 318 318 317 313 314 317 317 314 313 316 316 317 318 317 318 318 319 320 320 320 320 320 319 318 318 318 318 317 317 317 316 316 317 317 317 317 316 316 315 315 314 314 314 314 314 313 313 313 312 312 311 311 311 312 313 313 314 316 317 318 318 319 322 323 323 325 325 325 323 322 322 321 321 323 322 320 320 319 319 320 320 321 321 321 321 317 310 307 306 304 304
316 318 318 318 318 319 319 318 317 316 317 317 316 317 316 316 317 317 318 317 318 318 318 319 320 320 321 321 321 320 319 319 318 317 316 316 316 316 316 316 317 317 316 316 316 315 314 314 314 313 313 313 312 312 312 311 310 310 311 312 313 313 315 317 317 318 319 320 320 321 323 325 325 324 323 322 321 320 320 321 320 320 319 319 319 319 320 321 321 321 317 311 306 306 306 304 303
318 316 317 318 318 319 319 318 317 318 319 316 317 319 316 315 317 318 318 317 318 318 318 319 319 321 321 321 321 319 318 318 317 317 317 316 316 316 317 317 317 317 317 317 316 315 314 313 313 313 312 312 312 312 312 311 310 310 310 312 312 313 317 318 318 319 320 320 320 321 324 325 324 324 322 322 322 320 320 319 319 319 319 318 318 319 320 321 320 317 310 305 305 306 305 303 302
316 315 317 318 318 318 319 318 317 318 317 316 319 319 314 313 315 318 319 317 317 318 318 319 320 321 320 318 319 318 318 318 318 318 318 318 317 318 318 318 318 318 318 317 317 315 314 313 313 312 312 312 311 312 311 310 310 310 310 311 311 314 318 318 318 320 320 321 320 320 323 324 324 323 322 322 321 320 319 319 319 319 318 319 320 320 320 320 317 310 305 304 304 305 305 303 300
316 317 318 318 318 318 317 317 317 316 316 317 319 318 313 312 314 318 320 317 317 318 316 318 321 321 320 318 317 317 317 318 318 319 318 318 319 318 318 318 318 318 318 318 318 317 315 314 313 312 312 311 311 311 311 310 310 310 310 311 311 315 319 318 318 319 320 321 321 320 322 324 323 322 321 321 320 318 317 317 318 318 319 320 320 320 320 316 311 305 304 304 303 303 303 301 299
318 318 317 316 317 317 316 317 318 316 315 316 317 318 315 312 313 317 319 317 317 318 317 318 320 321 321 320 319 317 317 317 317 318 318 318 319 318 318 318 318 318 318 318 318 317 316 315 314 313 312 311 311 311 311 310 310 309 310 310 310 314 317 316 317 318 319 321 322 321 322 323 322 321 320 320 318 317 317 317 318 318 319 319 319 318 316 311 305 302 302 302 302 302 301 300 299
318 317 315 315 315 316 316 318 319 317 316 315 315 317 317 314 315 317 317 317 317 318 318 319 319 320 320 320 319 318 318 317 317 317 317 318 318 319 318 318 318 318 318 318 317 317 317 316 314 314 313 311 310 311 311 310 309 309 310 310 310 312 314 316 318 318 319 321 322 321 321 321 321 320 320 320 318 317 316 317 317 318 319 319 317 315 310 305 302 300 301 301 301 301 300 299 298
316 316 316 315 313 314 316 317 318 316 316 314 314 317 317 315 316 317 317 317 318 318 319 319 320 320 319 319 319 318 317 317 317 316 316 317 317 317 318 318 318 318 318 317 317 316 316 315 315 313 312 311 310 311 311 310 309 309 309 310 311 311 313 315 317 318 320 321 320 320 320 321 321 321 320 320 319 317 315 316 317 317 319 318 314 309 304 301 300 299 300 300 300 300 299 299 298
316 316 317 315 313 314 315 315 315 316 315 313 313 316 316 315 316 317 318 318 318 319 318 318 318 319 318 318 318 317 317 317 317 316 316 317 317 316 317 317 317 317 317 317 316 316 315 315 314 313 312 311 310 311 311 310 309 309 309 309 311 312 312 314 317 319 320 320 319 319 320 320 321 321 320 319 318 316 315 315 316 317 317 315 309 304 301 299 298 298 299 299 299 299 298 298 297
316 317 318 317 316 314 313 314 314 314 314 314 314 315 315 316 316 317 317 317 317 318 318 318 318 318 317 317 317 316 317 317 317 317 317 317 318 317 317 317 318 318 318 317 316 316 316 315 314 314 312 311 311 312 312 310 309 309 309 309 311 312 312 315 317 318 318 318 319 319 319 319 320 320 319 317 316 315 314 315 316 316 316 312 305 301 299 298 298 297 298 298 298 298 297 297 296
316 317 318 318 317 315 314 314 313 313 313 314 315 315 315 315 315 316 316 316 316 317 318 318 318 318 318 318 317 317 318 318 317 317 317 318 318 318 318 318 318 318 318 317 316 315 315 315 314 314 313 312 311 312 313 311 309 309 309 309 309 310 312 314 316 317 318 319 319 318 318 318 319 319 317 315 314 314 315 315 315 316 314 308 302 299 298 297 297 297 297 297 297 297 296 295 294
317 317 317 316 316 315 314 314 315 314 315 314 314 314 314 313 315 317 317 316 316 316 317 318 318 318 319 318 317 317 319 318 317 317 317 317 318 318 318 318 318 318 318 317 316 315 314 314 314 313 313 312 312 313 313 311 309 309 309 309 309 310 311 313 313 315 318 318 317 317 317 318 319 317 315 315 314 315 316 316 315 315 312 305 300 298 297 297 296 296 296 296 296 295 294 294 293
316 316 316 315 315 315 314 314 315 315 316 316 315 314 314 314 314 316 316 316 317 317 317 318 318 318 319 319 318 319 320 319 318 317 317 317 317 318 318 318 318 318 317 317 316 315 315 315 314 313 313 312 311 312 312 311 310 309 309 309 309 310 311 312 313 315 317 317 316 316 317 318 318 317 315 315 314 315 316 316 315 314 309 303 298 297 297 296 295 295 295 294 294 294 293 293 293
314 315 315 316 316 316 315 315 314 314 315 316 316 315 315 315 315 315 316 316 316 316 317 317 318 318 319 319 320 320 320 319 318 317 317 317 318 318 318 318 318 317 317 317 316 316 316 315 315 314 313 312 311 312 312 311 311 309 309 309 309 310 311 312 313 314 316 317 317 316 317 317 317 316 315 315 314 315 315 315 315 313 307 301 298 297 296 295 295 294 294 294 294 293 293 293 293
313 313 315 315 316 315 315 316 315 314 315 315 315 315 314 315 316 316 316 316 317 317 317 317 319 319 319 320 320 319 318 318 318 318 318 318 318 318 318 318 317 317 317 316 316 316 316 316 315 315 314 313 312 312 312 311 311 310 309 309 309 310 310 311 312 313 315 316 316 316 316 316 316 315 315 315 314 314 315 314 314 311 306 299 297 297 296 295 295 294 294 294 293 293 293 293 293
315 314 314 315 315 315 315 316 316 315 315 315 315 315 315 316 317 316 315 316 317 317 317 318 318 318 320 321 320 318 318 317 317 318 318 318 318 318 318 317 317 317 317 317 317 317 317 316 316 315 315 314 313 313 312 311 310 310 309 309 310 310 309 309 311 313 313 314 315 316 316 316 315 315 315 314 314 314 314 314 313 311 305 299 297 297 295 295 294 294 294 293 293 293 293 293 293
Wind_Speed
6 7 7 6 6 5 4 3 3 2 3 1 4 1 4 4 2 4 5 4 3 5 4 3 3 1 0 4 6 6 5 7 6 3 2 6 18 17 14 16 14 12 12 10 9 9 8 9 11 11 13 14 13 12 12 11 11 10 9 9 8 8 8 8 8 8 8 8 9 9 10 10 11 12 14 15 14 13 12 11 11 12 12 13 14 14 15 16 16 16 15 15 15 14 15 15 14
7 8 8 6 5 3 2 4 3 2 3 3 3 2 6 4 3 4 5 5 5 6 4 3 2 2 1 4 5 5 3 7 6 7 5 13 16 16 17 15 14 13 12 10 9 9 8 8 9 11 12 14 13 13 12 11 10 9 8 8 7 7 7 7 7 7 7 8 9 9 10 11 12 13 13 14 14 14 13 12 12 12 12 14 15 15 16 17 16 16 15 14 14 14 16 16 17
8 9 8 4 3 5 3 4 3 1 2 3 4 4 5 4 4 5 7 8 9 7 5 4 2 3 4 4 3 4 3 6 6 8 10 15 10 12 16 15 16 13 11 11 10 11 10 9 9 10 12 13 13 13 12 11 10 8 7 7 7 8 7 7 7 7 7 8 9 10 11 11 12 12 12 13 13 13 13 13 12 12 13 15 16 16 16 16 15 15 14 14 14 14 16 17 18
9 9 9 4 4 5 4 3 2 2 1 3 4 5 4 3 6 8 9 9 9 7 5 3 2 3 6 4 4 4 1 4 6 8 12 15 8 14 18 17 18 14 12 12 10 12 12 11 10 10 12 13 13 12 12 10 9 7 7 7 7 8 7 7 7 7 7 9 9 10 11 11 11 11 11 12 13 14 14 13 12 13 13 15 17 16 16 17 15 15 14 13 14 15 16 17 18
10 9 7 4 5 2 2 2 1 2 3 3 2 5 4 4 7 9 10 9 8 6 3 3 2 3 6 4 4 3 2 2 7 11 13 15 14 18 18 18 19 14 13 12 11 11 11 12 11 11 12 13 12 11 11 10 8 7 6 7 8 8 7 7 7 7 7 9 9 10 11 10 10 10 11 12 14 14 14 14 13 13 13 15 16 16 16 16 15 15 15 15 15 16 17 18 19
9 5 4 3 4 2 2 2 1 1 5 4 3 6 5 5 8 10 11 9 7 4 3 3 1 1 4 4 4 2 2 3 7 12 12 16 18 21 20 19 18 14 13 13 11 10 11 12 12 12 12 12 12 11 11 10 8 7 7 7 8 8 7 6 7 7 7 8 9 9 9 9 9 9 10 11 13 14 14 14 13 13 13 14 15 15 15 15 15 15 16 16 17 18 17 18 19
8 4 4 4 3 2 4 1 1 3 4 4 4 5 6 7 8 11 11 8 5 3 3 3 2 4 2 3 4 4 7 6 7 13 13 15 19 21 20 18 16 13 13 13 12 11 12 13 12 12 12 12 11 10 10 10 8 7 7 7 8 9 8 7 6 6 7 8 8 7 8 8 8 8 9 10 12 13 14 14 14 13 13 13 14 14 15 15 16 16 17 17 18 17 17 18 18
9 4 4 4 2 2 3 1 2 3 4 2 3 4 6 8 9 10 9 6 5 5 5 4 3 5 1 3 2 3 9 9 9 13 13 14 18 19 19 17 15 14 13 12 13 13 13 13 12 12 12 12 11 10 10 10 9 8 7 8 9 8 8 7 6 6 7 7 7 6 6 6 6 7 8 9 11 13 13 14 14 13 13 12 13 14 15 16 17 17 17 17 17 17 17 17 17
7 3 5 5 2 2 2 1 2 3 4 4 4 4 5 7 8 7 7 5 4 5 4 4 5 4 2 4 2 4 9 9 9 12 13 14 16 17 17 17 14 14 13 12 12 12 14 14 13 13 13 12 11 10 10 10 9 8 8 8 9 8 7 7 6 5 6 7 6 5 5 5 5 6 7 8 10 12 13 13 14 13 13 13 13 14 15 16 16 17 17 17 17 17 17 17 17
6 5 4 4 2 2 2 1 2 3 4 4 5 6 6 7 7 6 6 5 4 4 4 3 5 4 1 3 4 5 9 9 10 12 14 15 15 17 17 16 14 13 13 12 12 12 14 15 14 14 13 13 12 11 10 10 10 9 9 9 9 9 8 7 7 5 6 6 6 5 4 5 5 5 6 7 9 11 12 12 13 13 14 14 14 15 16 16 17 17 17 17 17 18 18 18 17
7 6 4 4 3 3 2 2 3 3 5 4 5 8 7 8 8 6 5 4 5 4 4 4 5 5 5 3 4 5 9 10 12 12 14 15 16 17 16 18 18 15 14 14 13 14 15 16 16 14 13 13 12 12 11 11 10 9 9 9 9 9 9 8 7 6 6 5 5 4 4 4 4 4 5 7 8 10 11 11 12 13 13 14 15 16 17 17 18 18 18 18 18 18 18 18 18
6 6 4 4 4 2 1 1 2 3 5 5 6 8 8 9 8 6 6 4 5 5 5 6 3 2 6 3 4 6 10 12 12 13 14 14 16 17 17 19 21 17 16 16 16 16 16 17 16 15 14 13 13 13 12 11 10 10 9 9 8 9 9 9 8 7 6 6 5 5 4 4 4 3 4 7 8 9 9 10 11 12 12 14 15 16 17 17 17 18 18 18 18 18 18 18 17
5 6 6 4 2 1 1 1 2 2 3 5 6 9 9 10 9 7 7 5 5 6 6 8 4 2 5 2 4 8 11 14 14 13 13 14 15 17 18 21 23 21 18 18 19 18 17 18 17 15 15 15 14 13 12 11 10 10 10 9 9 9 9 9 8 8 7 6 6 6 5 4 3 3 4 6 7 8 8 8 9 10 11 12 14 15 16 16 16 17 17 18 18 18 18 18 17
5 4 6 2 0 2 1 1 1 2 2 6 8 11 11 8 8 5 5 7 6 4 4 8 7 3 5 3 5 9 13 16 15 13 14 14 14 16 19 22 24 23 22 19 19 20 19 19 17 16 17 16 15 14 13 12 11 11 11 11 10 10 10 9 9 8 8 7 7 6 5 4 4 3 4 4 5 6 7 7 7 8 9 10 11 13 14 14 15 15 16 16 16 17 17 18 17
4 3 5 2 2 3 2 1 1 3 2 9 9 12 12 6 6 5 5 5 3 4 5 7 9 4 2 2 6 10 14 17 16 15 15 14 14 16 18 22 24 23 24 20 17 20 22 20 18 16 17 17 16 14 14 13 13 12 12 12 11 11 11 11 11 10 9 8 7 7 6 5 4 3 3 4 4 5 5 5 6 6 7 8 9 10 11 13 13 14 14 14 15 16 17 17 17
5 3 5 3 4 4 4 3 1 3 3 10 9 12 11 7 7 6 7 6 1 5 8 5 9 7 2 3 5 9 13 16 17 17 16 15 15 16 17 21 24 23 24 23 19 19 22 22 20 18 17 17 16 16 15 15 14 14 13 13 12 13 13 12 12 11 10 9 8 8 6 5 4 4 3 3 3 5 4 3 4 5 5 6 7 8 8 10 11 12 12 13 14 15 16 17 16
6 4 5 4 5 4 4 5 3 1 4 9 10 12 10 7 8 8 9 10 6 5 8 7 10 12 7 4 4 7 9 14 17 18 18 18 17 17 18 19 23 24 24 25 24 22 22 23 22 21 20 18 16 16 17 16 16 15 15 14 14 14 14 14 12 12 11 10 10 9 7 6 5 4 4 4 4 4 5 4 3 3 4 4 5 6 7 7 9 10 11 11 13 14 15 16 16
5 4 5 5 4 3 4 5 2 1 2 8 11 12 10 6 9 9 7 9 10 8 8 10 12 13 13 12 8 7 8 12 16 18 19 20 19 19 20 20 21 22 23 25 26 25 25 24 23 22 21 20 18 17 17 17 16 16 17 16 15 15 15 15 14 13 12 12 11 10 8 8 7 6 6 5 5 5 5 5 3 2 2 3 4 5 5 5 6 7 9 10 11 13 14 16 15
4 3 5 4 1 2 2 1 2 2 1 6 10 11 9 5 8 10 7 9 12 11 10 12 13 12 14 16 14 11 9 11 14 17 20 20 21 21 21 21 21 21 22 24 26 26 27 26 26 24 23 23 21 19 18 19 17 16 17 17 16 17 16 16 16 14 14 14 12 11 10 9 8 8 8 7 6 6 6 6 5 4 3 2 3 4 4 4 4 5 7 8 9 11 13 14 13
3 3 5 1 3 4 3 2 4 5 3 4 8 9 8 4 5 8 8 10 10 11 12 12 13 13 15 17 16 16 14 12 13 14 19 21 21 22 22 22 22 22 22 23 23 24 27 28 27 26 26 25 23 21 20 20 18 16 17 17 17 18 18 18 17 15 15 14 13 13 13 12 11 10 10 8 8 8 8 8 7 6 5 4 4 4 5 5 4 4 5 7 7 8 11 13 11
2 3 3 3 2 2 4 3 5 6 4 3 6 7 7 5 4 7 8 9 9 11 14 13 12 11 14 17 15 16 17 15 14 14 16 19 21 23 23 22 22 21 22 24 23 21 24 28 28 27 27 26 24 24 23 21 19 18 19 18 17 18 19 19 18 16 17 16 15 15 14 13 12 12 11 11 10 10 10 9 8 8 7 6 6 6 6 6 5 3 3 4 5 6 9 11 10
3 2 3 5 1 1 4 2 3 5 5 3 5 4 6 5 5 9 10 10 6 4 7 10 11 7 7 13 14 14 17 18 18 17 17 18 20 23 23 23 22 22 23 24 22 19 21 26 27 28 28 26 26 26 25 23 22 20 19 20 18 18 19 20 19 18 18 17 17 16 16 15 13 13 12 12 12 12 12 10 10 10 8 8 7 7 7 7 5 3 2 2 4 5 7 9 9
2 2 3 4 4 3 3 2 3 2 3 2 2 2 2 4 7 10 13 16 10 5 4 6 8 8 7 10 14 13 15 18 18 18 18 18 19 21 23 24 24 25 25 23 21 20 20 23 26 27 27 28 28 27 24 22 25 25 22 20 20 20 20 20 21 20 19 18 18 19 18 17 15 14 13 14 14 13 13 11 12 12 11 10 9 9 9 9 6 3 3 2 3 5 5 7 9
4 2 6 3 5 4 3 2 4 3 1 0 0 2 4 7 7 5 12 21 17 14 15 12 10 11 10 11 13 13 14 16 17 17 17 18 19 20 22 24 25 26 26 24 22 22 21 21 23 24 25 27 28 27 23 19 22 28 28 24 22 21 21 21 22 22 21 19 19 19 18 18 17 16 15 15 16 15 14 13 13 13 13 13 12 12 10 9 6 3 3 3 2 5 5 5 8
4 3 7 3 4 4 4 4 4 3 1 1 2 5 5 6 5 5 16 21 16 17 22 21 19 17 16 15 14 14 14 15 16 17 17 18 19 21 23 25 27 27 26 24 24 24 22 21 22 22 24 25 25 24 24 19 17 22 28 28 25 25 24 23 22 22 21 20 21 21 19 19 19 18 16 15 16 16 15 15 15 16 16 16 14 13 11 9 6 4 3 2 3 5 5 4 6
1 5 7 5 6 5 5 5 5 3 1 1 3 6 4 3 5 10 21 23 16 17 22 24 23 21 21 20 19 19 18 18 17 17 18 18 19 21 24 25 26 27 26 25 25 25 23 22 22 22 23 24 24 23 23 21 17 18 22 24 25 26 26 24 24 24 22 21 22 22 21 20 20 20 19 17 17 17 17 18 18 19 19 18 17 14 13 12 9 6 2 2 4 6 4 3 5
5 8 7 6 6 5 4 5 5 3 2 3 5 6 4 3 3 9 14 15 17 20 21 23 24 23 24 23 23 23 22 22 20 19 20 21 22 22 23 24 25 26 26 27 27 26 25 23 23 22 23 25 26 26 25 23 20 18 18 21 23 24 24 25 26 25 25 25 23 21 21 21 20 20 20 20 20 19 19 19 19 21 21 21 21 17 15 14 10 6 4 4 6 7 5 2 4
6 8 7 6 5 5 5 4 6 4 2 3 5 6 8 3 4 14 13 9 12 14 15 17 19 21 22 23 24 25 25 25 24 24 24 24 24 23 24 24 24 25 27 28 28 27 26 24 23 23 24 25 25 25 26 27 25 20 17 21 24 24 25 27 27 24 25 26 24 21 22 24 23 22 21 22 23 21 20 20 20 21 21 23 24 20 17 15 11 7 6 6 8 9 6 3 3
5 6 5 6 5 5 7 5 5 4 2 3 1 6 11 9 14 23 18 14 14 11 11 12 14 17 18 20 22 24 25 25 26 27 27 26 26 25 25 25 24 25 26 27 28 28 26 24 24 24 25 25 25 25 25 27 27 25 22 22 24 27 26 26 26 27 28 27 24 23 23 24 25 26 24 23 23 21 20 22 22 22 21 23 25 22 18 17 13 9 7 9 10 9 7 5 3
6 5 3 4 5 5 8 6 4 4 3 4 1 5 8 10 19 22 14 16 16 13 14 14 14 16 17 20 22 23 23 24 26 26 26 26 26 26 26 26 26 26 26 27 28 28 26 25 25 25 25 25 25 25 26 26 26 28 28 25 25 29 30 28 26 27 29 29 27 25 23 23 25 26 26 23 22 22 22 23 23 22 21 23 26 24 20 17 14 10 9 11 13 11 10 7 3
5 3 3 3 4 3 7 6 6 6 4 6 4 5 7 7 8 11 12 15 14 14 16 15 15 14 14 18 21 23 24 25 26 26 26 26 26 26 26 26 27 27 27 27 28 27 27 27 26 26 26 26 26 26 26 26 26 28 30 28 27 29 33 34 32 30 30 30 30 29 25 25 25 25 27 25 22 23 25 25 23 23 22 22 26 25 21 18 15 12 11 12 14 14 12 7 4
3 3 3 4 3 3 7 5 6 4 3 8 7 4 8 9 1 6 9 12 12 14 16 15 15 14 13 15 18 22 23 25 26 26 27 27 26 27 26 26 27 28 28 28 28 27 28 28 27 26 27 27 28 27 26 26 27 30 30 29 29 28 30 34 36 36 34 31 30 30 27 27 28 27 28 26 22 21 24 25 25 25 23 23 28 28 23 20 17 15 13 13 16 16 12 8 6
4 5 3 4 5 4 5 4 4 2 3 8 10 6 6 4 2 2 6 9 10 11 13 14 14 13 13 13 16 20 22 23 25 26 26 26 25 25 25 26 27 28 28 28 29 28 28 29 27 26 27 28 29 28 27 28 29 30 30 30 29 27 28 31 35 37 34 29 29 29 26 27 27 26 26 24 23 22 22 23 25 25 23 25 30 29 24 21 18 15 14 16 17 16 13 10 9
5 4 4 3 4 4 3 4 4 3 3 6 10 10 11 9 7 7 8 9 10 10 13 14 14 14 14 13 16 22 24 25 25 25 25 24 23 23 23 24 26 28 28 28 30 30 29 29 29 27 27 29 29 30 29 29 30 30 31 30 29 28 28 30 32 34 32 29 30 29 26 25 25 24 23 23 24 25 24 24 25 25 24 25 27 26 23 21 18 14 15 19 20 16 14 12 11
4 5 4 4 5 6 5 2 4 4 5 7 9 11 14 15 15 17 17 15 14 15 17 18 19 19 19 18 20 24 29 31 29 27 26 24 22 21 22 23 25 26 28 29 30 31 30 31 30 29 29 29 30 31 31 31 31 31 31 30 29 28 29 28 28 31 32 30 30 29 27 27 25 23 23 22 22 24 25 23 25 27 24 22 25 27 25 22 19 17 18 21 21 17 15 13 12
1 1 2 4 3 4 3 4 3 2 4 7 11 13 15 14 14 17 19 19 19 21 20 20 19 19 20 22 24 27 32 37 34 31 30 29 27 27 27 27 26 26 27 29 31 32 32 32 33 31 30 31 31 33 33 33 34 32 31 31 30 29 29 28 27 30 32 30 29 29 30 30 26 24 24 22 21 23 24 21 22 25 21 20 25 28 25 22 21 20 21 23 21 18 16 14 14
2 1 3 3 3 3 2 5 4 1 4 8 10 12 16 16 13 15 19 20 21 22 22 21 20 19 20 23 30 34 36 37 35 34 35 34 33 34 34 32 30 29 28 29 31 33 33 34 34 33 32 32 33 34 33 34 34 33 32 31 31 30 30 29 27 29 30 31 30 30 32 31 27 26 25 23 22 23 25 22 22 22 20 21 25 24 21 20 21 22 25 25 21 19 17 17 16
2 3 3 3 4 3 3 5 3 2 2 7 9 12 16 17 14 15 18 17 20 23 22 22 22 21 21 24 32 36 34 34 34 35 35 35 36 36 36 35 33 32 31 32 32 33 34 35 35 35 34 33 34 34 33 33 33 32 31 30 30 30 30 29 28 27 27 30 31 32 33 30 27 27 26 24 23 22 24 24 23 23 22 22 24 23 21 20 22 25 27 25 21 18 18 19 19
3 3 3 3 2 1 3 5 2 2 2 6 9 11 15 18 16 16 18 19 23 26 24 22 22 21 21 23 26 27 27 29 32 35 35 35 36 36 36 36 35 33 32 33 34 34 35 36 36 36 35 34 34 34 33 32 32 32 30 29 30 29 28 28 27 26 26 28 30 32 32 28 27 27 26 24 22 21 22 23 24 23 23 23 23 24 22 22 26 28 27 25 22 20 20 21 20
4 3 4 3 0 1 1 2 1 4 4 7 11 10 12 16 16 15 19 22 24 25 23 22 22 22 24 25 23 22 24 28 30 30 31 34 35 35 36 36 35 34 33 34 35 36 37 37 36 36 36 35 35 34 33 32 32 32 32 31 31 29 27 26 25 25 26 28 29 29 29 28 27 28 28 26 22 21 22 24 23 21 22 23 24 26 24 25 29 29 28 26 24 23 23 23 22
6 6 6 5 2 3 2 2 3 5 6 5 9 9 8 10 12 11 9 11 14 17 16 18 21 23 25 26 25 25 27 29 29 27 27 30 33 32 31 31 31 32 32 33 34 35 37 37 37 37 37 36 35 35 34 33 34 33 33 33 31 28 27 26 26 26 29 30 31 30 28 28 28 29 29 26 24 23 23 26 25 21 21 22 24 27 25 25 28 28 27 26 25 24 23 23 24
5 7 7 8 7 5 3 4 6 5 4 2 3 7 5 4 7 9 5 4 9 11 12 14 19 20 21 24 25 26 27 28 30 29 27 29 32 31 30 28 27 28 28 29 30 32 34 36 37 38 38 38 36 36 35 34 34 34 34 34 33 31 30 29 28 28 30 32 34 31 27 27 29 30 29 26 24 23 24 26 25 22 21 21 24 28 27 28 30 29 27 26 26 25 22 21 23
4 2 3 6 7 4 4 5 4 4 4 1 2 6 6 5 9 12 11 12 14 13 11 15 18 16 17 22 24 24 24 24 24 24 22 25 29 29 28 28 26 25 25 25 26 29 31 34 35 37 39 39 37 38 37 35 34 34 35 35 34 32 31 31 29 28 29 31 32 30 28 29 31 31 28 26 25 24 25 25 22 20 21 23 26 31 31 31 31 29 28 27 26 25 24 21 21
2 1 3 0 2 2 2 3 4 4 7 3 6 5 8 8 9 13 14 14 15 14 11 13 16 16 15 16 16 15 15 15 15 16 15 17 21 22 22 22 22 21 21 22 24 26 29 31 33 35 38 38 38 39 37 34 35 35 34 34 34 32 32 31 29 28 28 30 30 29 30 32 33 31 28 27 27 26 26 25 23 21 22 24 28 33 34 32 30 30 30 28 26 26 25 22 20
0 2 3 4 3 0 1 2 4 3 6 6 5 5 6 8 5 9 12 13 12 12 11 12 14 12 9 9 8 8 8 9 10 11 12 13 14 15 16 17 18 18 19 21 22 24 26 29 31 33 35 36 37 39 36 33 35 35 33 34 34 33 32 32 29 28 28 29 30 29 31 33 32 30 29 29 28 27 26 25 25 25 25 27 31 34 34 33 31 31 30 28 27 27 26 23 22
3 5 5 6 4 2 2 2 4 2 6 7 6 8 5 10 6 7 8 8 9 9 10 10 8 5 5 4 3 5 7 8 7 8 9 9 9 10 11 12 13 13 15 17 19 21 24 27 29 31 33 34 37 37 34 33 35 35 34 34 34 34 34 34 31 29 29 30 31 29 31 34 32 30 29 30 29 27 26 27 28 27 28 31 33 34 35 33 32 31 29 28 29 28 27 26 24
8 7 5 5 3 2 1 2 1 3 8 5 6 10 4 8 8 5 7 8 9 8 7 6 3 7 6 3 3 7 9 8 7 5 6 6 6 7 7 8 9 9 11 12 14 18 22 25 28 30 31 33 36 36 33 34 35 35 35 34 34 35 36 36 34 31 30 32 34 32 32 35 33 30 30 30 30 27 26 29 30 30 32 33 33 34 35 33 32 31 29 29 29 29 28 27 24
6 4 4 3 2 2 2 3 2 5 7 0 3 5 6 7 7 4 6 6 8 5 5 5 3 4 4 2 7 11 11 11 9 7 6 6 7 7 6 7 8 10 12 13 15 17 20 23 25 29 31 32 35 35 32 33 34 34 35 35 35 36 37 37 34 31 31 33 35 34 34 35 33 30 31 31 29 27 26 30 33 34 35 35 33 34 35 33 32 31 30 30 29 29 28 26 22
4 4 6 4 3 4 4 5 4 6 5 2 2 1 5 12 12 6 4 5 7 6 6 7 5 5 8 10 14 17 17 17 14 12 10 9 10 10 9 10 12 14 16 17 18 18 20 22 24 28 30 32 34 34 31 31 34 34 35 36 36 36 36 35 33 31 31 32 34 34 35 37 35 33 32 30 29 27 26 30 34 37 37 36 35 35 35 33 32 31 30 30 30 29 28 25 22
8 7 7 6 5 5 7 6 5 5 3 2 2 1 5 11 11 10 12 12 12 12 11 10 10 12 17 18 19 21 22 24 22 19 16 16 18 18 17 17 17 19 19 20 20 20 21 22 24 27 29 31 33 32 29 30 33 34 35 35 35 35 36 35 33 33 33 33 33 32 33 36 36 34 32 31 30 27 27 31 35 39 38 36 36 36 35 33 31 31 30 30 30 29 27 25 23
10 8 7 7 6 7 7 5 5 6 2 1 3 3 5 7 2 2 4 5 6 9 12 15 17 19 21 22 22 22 24 27 28 24 20 20 21 23 24 22 21 21 22 23 22 22 22 23 24 26 28 30 30 30 28 29 32 34 34 35 35 36 36 35 35 35 35 34 32 31 31 32 33 33 32 31 30 28 30 34 38 41 39 36 36 36 34 32 31 31 31 31 30 28 27 25 24
7 5 6 8 5 6 5 2 1 2 2 2 4 4 6 6 8 9 7 5 5 8 11 13 17 19 18 18 21 23 26 27 27 23 18 17 17 19 20 18 19 21 23 23 22 22 22 22 23 25 27 28 28 29 28 28 32 34 34 35 36 37 36 36 36 36 35 32 30 30 29 29 31 33 32 29 27 28 32 36 39 42 39 36 37 36 34 33 31 31 31 31 30 28 26 25 24
5 5 6 3 2 2 5 2 3 2 5 6 5 7 8 8 14 15 13 14 13 12 12 11 13 14 14 17 23 27 27 26 26 22 18 17 16 14 14 14 17 19 21 21 21 20 20 20 21 23 25 26 27 29 28 27 31 35 35 36 36 36 37 37 37 36 34 32 30 30 29 30 33 33 30 26 25 27 31 36 40 41 39 37 37 35 34 32 32 31 31 30 29 28 27 25 24
3 5 5 3 4 1 4 5 2 3 8 6 6 11 10 8 9 5 4 10 12 11 11 10 12 13 14 20 27 28 24 23 24 21 19 20 19 14 12 13 15 16 18 19 19 18 18 19 20 22 24 24 26 28 26 25 30 34 35 35 35 36 37 37 36 35 34 33 31 31 30 32 34 33 28 25 25 28 31 36 40 40 38 38 37 35 34 32 32 32 31 30 29 28 27 25 24
1 1 1 2 2 4 5 6 5 7 8 6 8 12 10 10 11 6 3 6 7 7 9 8 9 11 13 18 24 23 19 18 19 18 17 17 17 15 12 12 13 15 15 16 16 17 18 18 20 21 23 23 26 27 25 24 29 33 35 35 34 36 36 35 35 36 35 34 33 32 32 34 35 32 28 26 26 29 30 34 39 40 38 38 37 35 33 33 33 32 31 30 29 28 26 25 25
1 3 2 2 2 4 4 5 5 6 8 6 8 10 9 11 11 11 13 12 11 11 9 8 8 11 13 15 18 19 17 17 18 16 12 14 15 13 12 11 12 13 12 12 13 15 16 18 19 21 22 23 26 28 25 24 28 32 35 35 34 35 35 35 35 36 37 37 35 34 33 34 35 33 29 27 27 29 30 32 37 39 38 38 37 35 34 33 33 32 31 30 29 28 27 26 25
6 6 6 5 3 1 2 4 4 5 6 6 7 8 10 10 7 10 15 12 11 10 8 6 6 9 12 13 15 18 20 19 17 12 11 13 14 13 11 11 11 10 9 8 9 11 13 16 18 20 21 23 26 28 26 25 27 30 33 34 34 34 34 35 35 35 38 38 36 36 35 34 34 32 30 29 28 29 31 32 34 37 39 39 37 35 34 34 33 32 31 30 29 28 27 26 24
9 9 10 10 8 5 4 6 5 3 4 6 6 7 13 11 2 6 12 8 5 5 4 4 6 9 11 11 13 16 19 19 15 12 14 12 13 13 12 13 11 8 8 6 5 6 9 12 15 18 20 22 25 28 28 25 26 29 31 33 34 33 34 34 35 35 36 36 36 38 37 35 33 32 31 31 29 30 32 33 34 36 39 40 38 36 35 35 34 33 31 30 29 28 27 26 24
Wind_Direction
156 154 151 148 141 156 187 239 244 191 251 105 99 138 101 67 86 137 131 125 122 87 59 69 63 77 67 356 350 356 5 6 4 11 2 144 142 159 176 164 158 152 156 159 160 157 157 151 135 136 139 140 141 140 135 132 129 129 130 128 129 125 118 106 97 87 76 68 62 61 65 66 66 67 66 61 60 63 66 67 67 68 77 88 90 90 92 92 92 92 92 93 96 96 98 99 99
157 156 154 144 148 194 218 228 257 168 205 127 96 48 97 123 177 142 115 97 69 79 91 92 108 187 340 351 322 304 34 41 39 63 108 161 150 166 176 165 159 152 157 160 159 159 162 162 145 139 143 144 143 143 138 136 135 133 138 138 139 132 122 110 99 89 77 71 68 69 74 77 77 74 68 62 62 64 68 69 69 70 77 86 89 91 94 95 95 96 98 101 103 101 96 95 95
160 157 158 153 187 239 246 225 269 254 202 104 99 85 118 159 143 102 84 78 77 94 104 99 135 174 217 260 296 302 65 67 82 92 131 155 153 169 166 166 160 151 163 160 161 166 167 173 158 144 147 148 146 146 143 142 140 140 148 149 151 143 127 113 102 90 79 75 75 78 86 88 84 78 69 63 63 65 70 73 72 74 79 85 89 91 94 95 99 105 105 106 108 102 97 96 94
165 160 159 179 240 233 240 239 301 302 30 76 103 112 145 149 112 92 86 86 89 106 108 125 149 163 223 261 341 311 107 98 118 112 142 153 168 181 167 169 163 155 167 164 169 176 175 177 169 154 149 153 151 148 147 147 144 145 150 150 153 149 136 118 105 91 83 83 84 89 95 95 87 79 69 61 62 64 69 74 74 76 80 86 89 90 90 89 91 99 103 108 107 99 97 96 92
164 164 165 209 262 249 278 269 284 298 37 35 81 119 148 125 115 104 100 99 99 109 108 166 144 143 221 264 319 313 89 125 161 136 148 169 183 183 172 169 167 162 168 166 171 181 183 180 176 163 154 156 155 152 152 149 146 149 151 151 151 151 146 127 109 94 89 93 95 99 101 97 88 79 69 61 63 65 67 72 74 76 81 87 92 95 97 97 95 96 98 101 96 90 90 89 88
161 180 194 237 273 293 269 237 203 71 52 2 49 112 134 117 124 117 112 108 107 105 112 186 302 198 205 219 240 257 156 143 158 153 166 185 181 177 173 170 169 166 169 171 174 186 190 184 181 169 160 158 158 159 156 153 151 153 150 149 154 152 150 136 116 102 98 102 103 107 108 100 90 80 72 65 66 68 69 72 75 77 82 86 91 95 99 103 104 100 96 93 90 87 86 85 86
160 189 205 210 225 251 260 234 26 70 66 0 48 109 129 122 127 126 131 129 132 142 163 194 305 262 198 162 199 228 214 171 164 183 184 182 175 174 173 171 170 169 174 177 179 188 191 187 183 173 165 160 160 164 161 159 157 160 156 149 156 156 152 143 126 113 109 110 109 112 112 104 90 79 72 67 68 71 72 73 76 79 83 87 88 90 92 95 99 98 95 92 90 88 86 85 85
162 190 217 225 200 223 274 80 40 40 72 58 70 84 105 129 139 140 151 147 153 159 179 200 243 255 156 125 185 207 212 194 190 192 182 176 173 173 174 173 171 173 177 182 189 192 190 186 184 179 172 165 163 166 166 167 163 164 160 153 158 159 156 146 137 125 116 116 114 114 112 106 90 78 72 68 68 70 72 73 75 78 82 86 87 89 90 92 95 95 93 92 90 89 87 85 83
178 232 232 240 228 203 255 107 94 68 98 121 120 97 99 137 152 155 161 150 150 160 170 181 212 252 114 146 138 152 206 208 195 183 178 180 177 175 176 174 170 175 182 188 198 196 189 187 186 183 180 173 168 170 168 171 170 168 163 158 160 164 164 152 150 139 123 121 117 116 112 108 96 81 73 69 69 69 69 71 75 78 81 85 85 87 90 91 92 91 90 90 89 87 84 83 81
204 229 242 241 239 209 209 159 119 103 116 120 126 135 140 150 161 170 170 160 151 164 159 159 213 242 282 185 141 163 212 206 195 188 183 185 183 179 176 173 169 179 189 193 202 201 193 192 191 185 187 183 174 174 172 174 173 171 168 162 165 171 171 165 163 154 136 130 121 121 117 113 105 87 76 72 70 71 69 70 75 79 83 86 88 89 90 90 90 89 89 88 86 84 82 80 78
214 211 257 250 224 227 210 129 122 111 124 138 133 139 152 158 170 179 178 174 154 172 162 177 223 226 251 232 146 190 212 199 199 195 189 192 190 182 178 177 173 177 191 197 203 205 200 198 197 191 192 193 185 181 178 178 175 173 173 169 172 176 176 175 175 166 151 140 130 129 129 121 114 102 83 75 74 75 73 71 77 82 86 90 92 93 93 93 92 92 90 87 84 82 79 77 76
226 193 215 238 231 247 23 57 127 121 136 165 152 144 155 161 175 184 191 194 174 200 191 195 222 206 234 212 152 197 196 196 202 198 195 197 194 187 185 182 177 176 189 200 202 204 203 200 201 198 195 199 194 188 187 183 179 178 180 179 178 180 181 180 181 176 163 156 146 141 143 134 123 117 93 81 79 81 78 77 81 86 90 93 96 97 97 96 95 94 91 88 84 80 76 74 73
244 195 208 237 266 321 11 349 119 128 174 173 146 146 157 167 185 193 193 199 196 208 185 191 207 261 251 133 143 191 188 197 201 197 194 197 197 194 189 185 184 183 187 199 205 204 204 202 203 205 201 202 200 195 196 190 188 187 185 189 188 188 187 183 186 184 175 170 161 154 158 156 142 128 107 90 83 86 83 81 86 91 95 96 100 101 99 97 96 95 92 88 83 78 74 71 71
248 212 227 246 224 269 280 284 137 215 192 130 125 144 161 175 192 201 199 203 201 197 167 189 207 248 252 188 159 174 188 201 201 196 194 196 196 195 193 189 192 193 190 197 206 204 204 204 202 205 204 203 202 201 202 197 197 198 195 194 194 196 193 189 190 189 186 181 174 171 174 178 167 150 131 107 91 94 89 82 87 96 101 100 102 103 103 101 99 97 93 89 83 78 74 70 70
234 227 239 251 208 223 223 257 193 243 143 118 133 150 164 179 186 198 218 220 176 179 199 206 214 221 268 224 143 160 195 204 200 200 198 198 196 195 196 194 198 199 197 199 205 204 205 206 201 199 203 205 203 204 206 203 202 204 204 200 198 201 201 200 194 193 194 190 189 185 185 190 186 178 160 138 117 112 102 87 87 97 105 106 105 106 107 107 105 102 97 91 84 78 74 71 70
200 211 233 235 221 214 193 206 201 236 120 118 144 152 164 183 186 202 218 232 254 205 221 218 216 219 328 10 136 173 204 202 199 205 205 203 201 200 199 200 202 203 203 205 206 207 209 210 205 199 200 203 205 208 209 210 208 206 206 203 203 205 207 207 200 197 198 198 199 194 189 193 201 205 195 179 154 138 128 107 93 98 108 113 113 113 113 113 112 108 102 95 87 81 76 72 71
181 206 231 225 214 212 179 188 186 199 100 118 150 160 171 179 187 215 218 225 247 235 225 220 225 225 242 260 196 201 205 201 202 204 208 209 206 205 205 205 205 207 209 209 210 213 214 214 212 207 204 203 207 212 213 215 213 208 209 208 209 210 212 214 207 203 203 204 205 200 194 186 196 209 210 205 187 167 151 140 121 105 112 122 124 124 123 121 118 112 105 97 91 84 79 75 71
185 212 224 227 217 194 166 193 184 50 112 141 160 172 187 175 175 205 216 224 231 239 233 224 236 235 238 246 237 225 207 204 208 206 210 212 211 210 211 211 209 210 212 212 213 215 216 217 216 214 213 210 211 215 215 217 217 212 211 210 212 215 217 216 209 210 210 209 210 207 198 190 196 202 203 209 209 195 174 165 159 140 136 135 138 139 139 131 123 116 105 98 93 86 82 78 75
211 236 226 237 196 95 84 226 132 45 15 146 160 178 197 181 163 187 209 223 215 229 234 222 234 236 236 244 238 230 219 208 211 212 214 216 217 217 217 217 214 214 214 214 215 217 216 217 218 216 216 215 214 218 217 217 217 213 213 213 214 217 219 218 211 213 215 212 214 209 202 199 198 199 203 212 219 210 194 184 177 175 176 162 162 162 159 151 137 123 107 97 92 85 82 82 80
227 245 231 227 90 85 57 29 81 59 25 148 161 173 193 183 151 176 213 235 217 227 234 218 224 226 228 240 239 230 228 221 216 218 219 221 222 220 222 225 223 219 218 219 221 223 219 218 220 218 218 218 214 216 218 218 218 215 217 217 218 218 219 220 215 214 217 214 215 212 208 206 201 204 209 215 221 219 210 197 188 188 189 188 185 182 178 168 153 131 111 100 88 78 80 83 83
192 218 262 37 89 109 85 71 78 66 46 140 145 157 196 190 168 192 221 241 228 233 238 227 229 229 219 228 240 234 233 234 231 228 226 227 226 224 223 228 232 225 221 225 228 230 225 223 223 222 223 221 215 214 216 219 220 220 221 219 220 221 220 220 217 218 220 219 219 217 212 208 206 207 211 218 221 227 224 206 196 195 197 205 200 194 189 177 165 145 117 109 98 83 77 77 80
182 183 13 37 358 96 95 93 115 85 61 118 141 158 190 174 199 222 228 237 239 253 241 222 230 241 208 216 239 245 239 241 241 240 236 233 232 230 223 224 232 227 226 231 233 233 228 226 226 226 228 224 218 217 218 220 218 216 219 222 223 223 223 221 219 220 221 222 223 220 213 212 215 213 213 218 218 227 231 214 204 200 202 213 207 199 196 191 181 168 148 127 129 121 84 70 73
218 146 93 58 17 64 99 124 167 128 63 124 157 164 171 190 226 229 231 238 245 298 283 220 225 239 228 228 246 253 247 247 246 246 244 240 238 237 230 225 229 230 233 236 234 233 228 227 227 228 230 227 224 221 220 221 217 213 213 219 225 227 227 223 222 225 223 223 226 224 219 217 220 219 216 216 214 223 229 222 216 208 206 214 210 204 204 198 190 188 188 170 159 151 108 72 72
257 148 124 88 47 82 92 117 176 159 77 267 233 266 237 230 240 231 238 242 244 264 268 254 246 247 243 241 250 255 253 252 251 251 248 245 243 240 236 230 231 235 238 237 233 235 233 231 229 227 228 227 226 224 223 223 219 216 216 219 223 226 227 225 225 228 227 226 228 227 224 221 221 221 217 214 215 219 223 227 228 218 211 214 211 206 208 200 191 205 190 189 216 168 137 81 75
253 139 126 118 85 98 92 107 149 139 179 270 234 253 249 237 260 269 253 251 246 251 257 258 257 258 257 250 252 255 253 254 252 251 248 245 242 238 237 234 235 239 240 238 234 237 238 235 233 229 228 227 225 225 225 226 223 222 222 224 225 224 223 224 225 226 228 230 231 229 228 227 225 223 220 217 217 218 222 229 229 224 219 218 217 211 209 204 207 230 188 169 231 190 162 90 79
151 126 131 135 116 110 111 118 123 129 172 179 219 239 238 237 268 266 256 254 247 241 247 256 258 259 260 257 255 254 253 253 251 251 249 246 242 238 238 237 238 240 241 240 238 239 240 238 236 232 230 230 227 226 227 226 225 228 228 228 229 225 221 225 229 229 230 231 231 231 232 233 229 226 223 218 217 218 223 227 223 223 225 222 218 215 209 206 218 241 213 181 221 206 186 105 89
113 128 130 127 127 127 132 138 135 150 162 177 238 250 240 229 246 256 253 245 240 240 244 252 257 256 256 258 257 256 254 254 252 250 249 247 245 242 242 241 240 240 240 240 239 240 241 239 238 233 231 232 230 230 231 230 228 230 232 234 232 225 223 228 233 235 234 231 227 226 230 234 233 230 226 221 220 220 221 225 222 224 231 227 215 212 211 208 220 238 217 212 221 214 207 145 102
128 139 136 131 137 142 159 159 151 185 166 177 255 277 260 231 218 245 245 238 236 235 238 246 253 252 251 254 255 256 256 254 253 250 249 250 250 248 247 246 243 241 240 240 241 242 242 241 238 234 233 233 233 232 234 235 234 232 232 236 231 222 223 228 232 236 233 227 225 226 229 234 236 237 234 227 226 224 222 226 229 230 235 235 220 209 210 210 218 230 216 218 220 214 208 176 115
146 167 172 153 172 182 178 167 152 208 180 130 272 277 256 225 230 245 240 238 243 233 236 242 249 252 250 251 251 255 255 253 253 252 253 254 253 252 249 249 247 244 242 241 241 243 243 242 239 235 234 234 233 231 233 234 234 233 231 235 229 217 217 223 228 231 228 225 229 232 231 235 239 241 237 229 230 231 226 227 233 235 237 239 226 209 209 212 214 222 213 211 210 205 200 189 153
162 190 246 166 199 204 173 163 152 206 173 127 216 265 255 226 231 240 230 232 241 243 249 250 250 251 253 254 255 256 256 253 253 254 254 253 253 253 250 249 247 245 244 242 241 242 242 241 238 236 235 233 231 229 231 233 232 232 231 233 231 219 214 218 220 222 224 225 228 232 237 245 245 238 233 230 234 239 237 233 234 237 238 238 229 216 212 212 211 216 211 207 205 201 203 202 184
169 173 250 205 222 171 149 162 168 196 172 149 208 255 268 268 229 209 211 229 238 247 253 254 252 248 249 256 261 263 261 258 255 255 255 252 251 252 251 249 247 246 243 242 241 240 240 239 238 237 235 232 230 228 228 231 232 233 234 235 237 228 220 221 220 221 225 225 228 235 244 249 241 231 231 233 235 239 239 237 237 238 235 232 229 221 214 211 208 210 213 213 209 206 210 214 202
183 187 209 201 231 147 135 160 180 200 162 167 203 248 260 266 162 150 218 235 234 246 254 257 256 251 247 252 263 267 264 262 259 255 254 252 250 249 249 247 246 245 243 243 242 241 240 239 238 237 236 233 231 230 228 230 232 235 239 240 242 237 229 227 226 227 229 229 231 237 241 243 238 232 233 233 232 234 234 235 236 232 227 228 226 217 212 212 208 205 212 220 215 209 213 225 217
193 227 224 174 209 193 144 155 179 185 140 182 212 252 268 247 115 132 257 252 234 244 255 258 258 255 253 249 259 269 268 264 260 256 253 252 250 248 247 246 245 244 244 244 243 242 241 241 240 237 238 236 234 233 231 232 235 237 240 241 243 241 235 231 229 230 232 230 229 231 236 239 234 228 230 231 229 231 235 234 230 224 225 229 223 213 209 210 210 210 215 216 211 212 224 236 221
188 218 237 196 214 229 188 143 146 171 202 217 219 240 258 262 273 268 263 255 232 237 252 258 260 259 260 258 261 269 270 266 262 257 255 254 252 250 249 246 245 244 243 243 244 243 242 243 242 239 238 239 237 236 234 235 236 238 239 240 242 241 238 233 229 228 229 228 225 226 231 229 223 222 228 234 233 234 236 234 228 221 220 222 219 213 210 208 210 219 221 210 203 213 234 236 217
206 197 219 224 215 235 247 152 141 176 211 239 236 243 254 258 266 265 260 254 239 243 253 257 258 259 262 263 261 264 267 267 264 260 260 256 252 251 252 251 248 245 243 242 243 244 243 243 243 240 239 241 241 239 237 236 236 237 239 240 239 237 236 233 226 221 221 223 223 225 226 222 221 225 229 235 238 234 230 229 226 216 210 217 219 212 207 208 212 216 217 208 202 216 234 230 214
352 176 247 257 231 233 221 107 110 189 233 245 245 254 262 260 260 263 264 261 256 257 260 257 255 254 256 257 257 259 264 267 264 262 261 259 256 257 258 258 255 250 246 243 242 243 243 243 244 242 241 243 245 243 239 236 236 237 237 238 237 235 232 230 224 219 218 220 222 223 221 221 224 227 228 232 234 229 224 223 221 212 209 221 220 208 201 208 215 214 210 207 212 224 227 220 211
359 325 280 261 269 270 134 106 101 137 265 258 253 263 270 269 266 267 269 269 267 264 261 257 252 247 245 250 258 262 264 267 266 264 262 261 261 261 261 261 257 252 249 246 244 243 243 243 244 244 243 244 246 247 243 238 238 237 236 236 236 234 232 229 225 222 218 218 220 216 216 222 227 225 227 230 226 223 224 222 218 219 222 220 216 213 212 215 218 215 207 208 222 232 221 210 207
285 268 272 248 253 259 107 98 121 141 265 269 273 277 275 275 272 270 270 269 267 263 259 256 253 249 243 245 257 263 265 265 266 266 265 263 262 261 262 261 258 255 252 251 249 246 245 244 245 245 245 245 246 248 247 242 240 239 238 237 235 234 231 227 226 226 220 217 219 219 223 230 225 219 224 225 218 218 223 223 222 227 226 217 213 217 221 221 216 211 210 213 221 228 221 209 203
242 240 263 260 254 251 105 95 120 169 240 279 290 287 279 280 279 269 261 257 259 260 259 259 260 258 249 244 250 257 261 263 266 267 268 267 265 263 262 261 261 258 255 252 250 249 247 246 246 246 245 245 246 248 248 244 241 239 237 233 232 233 229 225 226 225 219 217 220 223 227 227 216 215 219 214 210 217 223 222 221 222 221 219 216 216 217 216 211 209 214 221 219 216 216 211 204
232 234 248 247 177 276 235 106 141 201 230 284 296 289 278 278 275 267 254 245 251 259 262 263 262 259 254 249 249 252 254 259 263 266 268 269 267 265 264 263 262 260 256 252 250 249 249 249 248 248 247 247 246 247 247 244 240 237 235 232 232 232 227 223 223 222 218 217 218 218 216 213 210 213 213 208 209 217 222 222 221 219 222 229 228 223 219 211 206 209 216 223 221 213 209 208 204
226 220 237 254 276 286 277 14 326 243 225 263 291 284 268 261 259 265 256 230 238 252 255 256 255 256 258 256 255 258 258 259 260 260 262 266 268 269 269 267 264 261 258 255 253 252 252 251 250 249 248 247 246 246 245 242 238 235 233 232 230 227 222 218 218 219 218 214 212 210 209 211 212 210 210 209 208 215 226 226 223 222 227 238 233 223 219 212 209 215 220 222 220 214 210 208 205
227 212 226 250 279 309 316 344 335 284 238 192 295 295 275 246 256 266 268 235 244 242 234 246 253 253 256 258 261 265 268 268 267 263 258 261 266 269 271 271 268 266 263 260 257 255 253 252 251 249 248 247 245 244 244 242 239 234 233 233 229 225 222 220 219 220 218 213 211 213 216 217 212 207 209 210 207 217 230 226 220 224 234 243 231 216 214 214 213 218 223 221 216 213 215 216 211
244 224 247 254 273 302 309 318 309 289 304 186 199 286 283 276 270 269 271 269 270 265 251 256 259 251 246 255 264 271 274 275 274 272 265 261 265 267 268 270 270 269 267 263 258 255 253 252 251 250 248 247 245 244 243 241 237 234 233 234 232 229 228 226 223 221 218 216 216 219 221 218 211 208 210 212 212 219 224 223 225 230 239 242 223 211 213 216 217 220 222 218 213 211 215 220 218
243 25 2 322 245 264 275 302 272 286 319 270 193 235 275 274 257 253 259 263 265 266 261 258 259 253 246 253 263 268 272 274 274 281 279 268 265 265 266 268 268 268 266 261 257 255 253 252 252 250 249 249 246 245 244 240 237 235 232 231 230 229 227 227 225 221 218 218 220 221 218 213 209 210 211 213 217 218 219 227 236 238 241 235 215 209 216 219 218 218 216 213 211 211 214 220 223
45 66 38 77 90 4 192 268 272 296 318 281 191 183 264 279 241 216 233 244 249 254 256 259 258 248 239 247 257 264 275 286 286 289 285 271 264 263 263 265 265 263 260 257 254 252 252 252 252 251 251 250 247 247 245 240 237 236 232 228 227 226 224 224 225 224 221 219 219 218 213 209 209 211 210 210 214 216 221 229 235 239 239 225 212 212 217 219 216 214 212 210 210 212 214 218 224
133 130 91 86 97 87 116 261 286 297 285 272 188 169 253 290 263 182 197 227 237 247 252 257 251 196 188 223 256 290 306 316 312 295 280 268 259 258 259 263 266 264 261 259 256 253 251 250 251 251 251 250 248 248 245 239 237 235 232 228 227 225 222 222 222 222 222 221 218 215 213 213 214 213 211 211 214 218 224 229 230 232 230 220 215 216 216 215 213 211 211 211 211 211 212 216 221
142 144 119 111 121 111 175 250 294 269 266 263 171 172 199 293 280 176 172 201 208 229 243 234 181 144 163 195 278 297 304 311 316 302 275 257 246 249 256 266 272 273 272 270 265 258 253 250 249 250 250 249 249 249 245 239 236 235 232 230 227 223 221 224 223 219 221 221 219 216 216 216 216 216 215 216 219 223 228 231 226 221 220 217 216 216 214 213 211 210 211 212 213 212 211 216 220
155 158 157 160 171 176 206 207 176 238 251 303 112 173 185 252 267 149 141 184 202 226 245 233 191 137 152 269 292 293 291 287 290 286 269 255 252 252 253 266 273 276 278 276 271 265 259 254 251 251 250 249 249 250 246 238 235 234 232 230 227 222 221 225 224 221 221 221 219 217 215 216 217 219 220 220 223 226 229 228 221 214 214 214 213 214 213 212 210 210 211 213 214 213 213 217 220
196 185 176 199 216 203 222 210 194 231 233 103 88 201 212 242 256 251 231 236 233 238 245 256 284 291 287 291 287 287 287 284 279 269 261 260 262 259 255 264 272 275 278 277 273 269 265 260 255 253 251 249 249 250 244 236 234 233 230 230 227 223 222 224 224 224 224 222 221 221 219 220 223 224 223 225 228 229 230 226 218 212 211 211 213 214 211 209 210 210 211 213 214 214 215 218 220
196 191 182 201 211 219 234 218 216 238 216 99 124 162 244 255 266 266 257 252 240 233 239 260 279 277 279 281 278 279 282 283 279 269 265 270 267 262 260 265 271 276 279 278 273 267 263 259 255 253 251 248 248 248 242 234 234 233 231 231 228 224 222 222 222 224 224 225 228 230 228 227 228 227 226 230 234 236 235 229 217 211 210 210 212 212 209 209 210 211 212 214 214 214 216 218 220
200 203 196 210 216 230 242 231 241 247 208 129 161 171 236 249 303 317 282 295 273 249 249 261 263 261 267 273 273 276 278 278 278 277 282 285 274 261 258 263 271 277 278 276 270 264 260 258 256 254 251 249 247 246 243 236 233 233 231 230 227 225 225 222 222 223 225 229 231 230 230 231 232 230 230 234 238 242 238 228 216 210 210 210 210 210 208 209 211 212 213 214 215 215 216 218 221
199 200 213 229 233 237 254 269 253 295 327 217 195 229 251 263 297 288 268 282 274 247 241 247 251 254 264 271 271 274 276 275 277 284 295 294 278 263 257 262 270 273 273 272 268 264 262 260 260 258 256 254 248 247 247 238 233 232 230 229 227 227 226 223 222 223 225 228 226 226 231 235 233 230 232 236 240 243 235 223 214 210 209 209 209 209 209 211 213 213 214 214 215 216 217 219 221
180 182 207 222 22 264 248 236 102 75 278 252 218 251 268 283 288 274 245 238 239 235 233 237 246 254 262 265 266 269 272 274 278 285 290 285 278 272 261 258 263 266 269 270 268 266 265 264 263 260 259 257 251 249 249 240 235 233 231 230 228 227 226 224 223 223 225 225 223 226 233 235 231 228 231 235 240 242 232 220 214 211 209 209 209 209 210 212 214 214 215 215 216 217 217 219 221
160 189 192 116 45 319 246 248 217 214 251 255 234 250 265 271 275 276 196 218 229 233 237 241 251 256 255 257 263 267 271 275 278 280 280 274 273 270 255 249 256 261 266 268 268 267 265 264 262 258 258 258 255 255 253 244 237 235 233 233 230 228 227 224 222 222 226 227 224 225 230 233 230 227 229 234 237 239 233 222 215 211 210 210 209 210 212 213 215 215 215 216 216 218 218 219 220
27 302 187 137 226 222 206 225 237 237 245 256 252 256 261 249 251 266 236 220 229 234 229 224 234 242 245 255 264 270 275 276 279 284 276 258 253 253 245 244 252 257 261 264 265 267 266 264 262 259 258 257 257 259 256 246 239 236 234 234 231 230 228 224 221 221 225 226 224 223 226 230 230 226 226 232 233 235 234 226 217 212 212 212 210 212 214 215 216 216 216 216 217 217 218 219 220
347 311 249 208 249 236 214 211 218 239 246 253 261 262 256 245 248 261 262 257 255 252 246 235 227 233 244 256 266 274 278 280 290 293 263 224 223 231 234 243 252 255 260 267 271 273 273 271 269 265 261 257 257 260 257 248 242 237 234 234 232 230 228 225 222 221 223 225 224 224 227 231 231 225 223 227 230 232 233 229 221 215 214 213 212 213 215 216 217 216 216 217 216 216 217 218 220
186 220 214 201 200 234 284 246 223 239 247 252 261 265 264 259 253 261 269 271 262 257 259 244 226 240 252 256 265 274 280 286 293 278 231 209 212 215 220 232 238 245 255 264 276 284 284 282 279 274 268 261 259 260 259 251 245 240 235 233 232 229 227 226 223 222 223 225 226 226 229 232 228 224 223 224 226 230 232 231 227 222 218 215 214 215 217 217 217 216 216 216 216 216 217 217 217
192 203 206 206 199 182 231 233 212 219 243 253 261 270 272 268 246 262 269 273 276 272 259 236 236 252 258 257 266 278 286 293 289 248 216 210 211 209 212 218 218 226 236 241 264 290 296 292 288 284 278 270 263 263 262 254 248 244 237 234 233 230 228 226 223 222 223 224 224 225 229 228 222 222 225 224 225 229 232 233 232 228 222 217 216 218 219 218 217 217 216 216 216 216 217 216 214